DLH6AN EDDV-EDDM

Flight info

Callsign DLH6AN
Flight time 0h 55m
Altitude 29000
Route POVEL Z94 GALMA T703 LULAR T105 LANDU
Aircraft A321/M-SDE3FGHIRWY/LB1

Departure

Time 2026-05-06 18:15
Airport Hannover Airport (EDDV)

Arrival

Time 2026-05-06 19:11
Airport Munich Airport (EDDM)
Time Latitude Longitude Altitude Speed Heading
2026-05-06 17:35 52.45832 9.69386 179 ft 0 kts 30°
2026-05-06 17:47 52.45831 9.69386 179 ft 0 kts 30°
2026-05-06 17:56 52.45831 9.69385 179 ft 0 kts 30°
2026-05-06 18:05 52.45826 9.69380 179 ft 4 kts 29°
2026-05-06 18:05 52.45802 9.69360 179 ft 4 kts 20°
2026-05-06 18:06 52.45776 9.69350 179 ft 4 kts 354°
2026-05-06 18:06 52.45759 9.69361 179 ft 3 kts 276°
2026-05-06 18:06 52.45759 9.69366 179 ft 0 kts 271°
2026-05-06 18:10 52.45759 9.69328 179 ft 7 kts 271°
2026-05-06 18:10 52.45759 9.69232 178 ft 9 kts 267°
2026-05-06 18:10 52.45711 9.69153 179 ft 12 kts 193°
2026-05-06 18:11 52.45631 9.69183 179 ft 14 kts 130°
2026-05-06 18:11 52.45616 9.69346 179 ft 16 kts 93°
2026-05-06 18:11 52.45611 9.69547 179 ft 18 kts 92°
2026-05-06 18:11 52.45606 9.69749 179 ft 17 kts 92°
2026-05-06 18:12 52.45599 9.69952 179 ft 19 kts 92°
2026-05-06 18:12 52.45593 9.70175 179 ft 20 kts 92°
2026-05-06 18:12 52.45586 9.70411 179 ft 21 kts 93°
2026-05-06 18:12 52.45579 9.70646 179 ft 20 kts 91°
2026-05-06 18:13 52.45574 9.70867 179 ft 18 kts 92°
2026-05-06 18:13 52.45551 9.71055 179 ft 16 kts 125°
2026-05-06 18:13 52.45466 9.71103 181 ft 11 kts 181°
2026-05-06 18:13 52.45424 9.71081 190 ft 5 kts 211°
2026-05-06 18:14 52.45405 9.71023 186 ft 6 kts 262°
2026-05-06 18:14 52.45406 9.71003 190 ft 0 kts 272°
2026-05-06 18:15 52.45408 9.70920 185 ft 34 kts 272°
2026-05-06 18:15 52.45431 9.70087 182 ft 109 kts 272°
2026-05-06 18:15 52.45472 9.68509 278 ft 158 kts 276°
2026-05-06 18:15 52.45510 9.66771 1070 ft 153 kts 277°
2026-05-06 18:16 52.45542 9.64960 1601 ft 168 kts 277°
2026-05-06 18:16 52.45583 9.62937 1996 ft 186 kts 276°
2026-05-06 18:16 52.45639 9.60717 2385 ft 204 kts 275°
2026-05-06 18:16 52.45706 9.58309 2777 ft 219 kts 275°
2026-05-06 18:17 52.45765 9.55717 3173 ft 234 kts 268°
2026-05-06 18:17 52.45179 9.53241 3880 ft 239 kts 226°
2026-05-06 18:17 52.43849 9.51690 4765 ft 234 kts 207°
2026-05-06 18:17 52.42429 9.50371 5618 ft 234 kts 206°
2026-05-06 18:18 52.41005 9.49054 6413 ft 236 kts 206°
2026-05-06 18:18 52.39572 9.47724 7183 ft 237 kts 207°
2026-05-06 18:18 52.38109 9.46502 8004 ft 235 kts 195°
2026-05-06 18:18 52.36506 9.46350 8868 ft 233 kts 169°
2026-05-06 18:19 52.35018 9.47509 9425 ft 251 kts 140°
2026-05-06 18:19 52.34015 9.50008 9690 ft 279 kts 114°
2026-05-06 18:19 52.33305 9.53069 10046 ft 298 kts 112°
2026-05-06 18:19 52.32558 9.56363 10261 ft 320 kts 112°
2026-05-06 18:20 52.31753 9.59896 10384 ft 343 kts 112°
2026-05-06 18:20 52.30910 9.63570 10765 ft 355 kts 113°
2026-05-06 18:20 52.30023 9.67416 11371 ft 359 kts 113°
2026-05-06 18:20 52.29129 9.71253 12008 ft 363 kts 113°
2026-05-06 18:21 52.28221 9.75127 12646 ft 367 kts 114°
2026-05-06 18:21 52.27309 9.78984 13283 ft 371 kts 114°
2026-05-06 18:21 52.26373 9.82929 13901 ft 374 kts 114°
2026-05-06 18:21 52.25422 9.86906 14457 ft 377 kts 115°
2026-05-06 18:22 52.24099 9.90581 14983 ft 376 kts 132°
2026-05-06 18:22 52.22403 9.93841 15537 ft 378 kts 134°
2026-05-06 18:22 52.20676 9.97095 16102 ft 382 kts 134°
2026-05-06 18:22 52.18923 10.00375 16659 ft 385 kts 134°
2026-05-06 18:23 52.17157 10.03678 17200 ft 389 kts 134°
2026-05-06 18:23 52.15350 10.07062 17757 ft 392 kts 134°
2026-05-06 18:23 52.13550 10.10436 18241 ft 396 kts 134°
2026-05-06 18:23 52.11766 10.13789 18695 ft 399 kts 134°
2026-05-06 18:24 52.09942 10.17212 19156 ft 402 kts 134°
2026-05-06 18:24 52.08104 10.20655 19614 ft 405 kts 134°
2026-05-06 18:24 52.06255 10.24118 20102 ft 407 kts 134°
2026-05-06 18:24 52.04391 10.27599 20557 ft 409 kts 134°
2026-05-06 18:25 52.02509 10.31095 21001 ft 412 kts 134°
2026-05-06 18:25 52.00615 10.34611 21429 ft 415 kts 135°
2026-05-06 18:25 51.98712 10.38146 21908 ft 417 kts 135°
2026-05-06 18:25 51.96798 10.41697 22362 ft 419 kts 135°
2026-05-06 18:26 51.94871 10.45267 22821 ft 422 kts 135°
2026-05-06 18:26 51.92932 10.48858 23255 ft 425 kts 135°
2026-05-06 18:26 51.90979 10.52463 23643 ft 427 kts 135°
2026-05-06 18:26 51.89011 10.56086 24023 ft 429 kts 135°
2026-05-06 18:27 51.87037 10.59718 24416 ft 431 kts 135°
2026-05-06 18:27 51.85053 10.63367 24806 ft 433 kts 135°
2026-05-06 18:27 51.83059 10.67026 25191 ft 434 kts 135°
2026-05-06 18:27 51.81054 10.70693 25572 ft 436 kts 135°
2026-05-06 18:28 51.79037 10.74370 25925 ft 438 kts 135°
2026-05-06 18:28 51.77014 10.78056 26302 ft 440 kts 135°
2026-05-06 18:28 51.74983 10.81755 26678 ft 441 kts 135°
2026-05-06 18:28 51.72945 10.85469 27048 ft 443 kts 135°
2026-05-06 18:29 51.70901 10.89195 27421 ft 445 kts 135°
2026-05-06 18:29 51.68847 10.92935 27778 ft 446 kts 135°
2026-05-06 18:29 51.66779 10.96692 28121 ft 448 kts 135°
2026-05-06 18:29 51.64708 11.00449 28454 ft 450 kts 135°
2026-05-06 18:30 51.62623 11.04219 28738 ft 451 kts 136°
2026-05-06 18:30 51.60356 11.07595 28804 ft 437 kts 149°
2026-05-06 18:30 51.57709 11.09858 29223 ft 427 kts 161°
2026-05-06 18:30 51.54984 11.11686 29902 ft 421 kts 161°
2026-05-06 18:31 51.52337 11.13476 30471 ft 416 kts 160°
2026-05-06 18:31 51.49683 11.15269 30970 ft 412 kts 161°
2026-05-06 18:31 51.47047 11.17043 31498 ft 408 kts 161°
2026-05-06 18:31 51.44445 11.18789 32046 ft 403 kts 161°
2026-05-06 18:32 51.41871 11.20511 32585 ft 399 kts 162°
2026-05-06 18:32 51.39300 11.22222 32767 ft 404 kts 162°
2026-05-06 18:32 51.34004 11.25717 32803 ft 420 kts 162°
2026-05-06 18:33 51.28539 11.29342 32790 ft 428 kts 162°
2026-05-06 18:33 51.23036 11.32999 32791 ft 428 kts 162°
2026-05-06 18:34 51.17542 11.36627 32799 ft 427 kts 162°
2026-05-06 18:34 51.12049 11.40246 32793 ft 427 kts 162°
2026-05-06 18:35 51.06552 11.43854 32766 ft 427 kts 163°
2026-05-06 18:35 51.01052 11.47459 32776 ft 428 kts 163°
2026-05-06 18:36 50.95551 11.51057 32783 ft 427 kts 163°
2026-05-06 18:36 50.90055 11.54635 32792 ft 427 kts 163°
2026-05-06 18:37 50.85451 11.57625 32797 ft 427 kts 163°
2026-05-06 18:37 50.79068 11.61774 32802 ft 427 kts 163°
2026-05-06 18:38 50.73576 11.65326 32796 ft 426 kts 163°
2026-05-06 18:38 50.68102 11.68859 32806 ft 424 kts 163°
2026-05-06 18:39 50.62642 11.72374 32781 ft 423 kts 163°
2026-05-06 18:40 50.54462 11.77617 32787 ft 423 kts 163°
2026-05-06 18:40 50.49002 11.81109 32789 ft 423 kts 163°
2026-05-06 18:41 50.43555 11.84628 32788 ft 424 kts 163°
2026-05-06 18:41 50.38135 11.88305 32787 ft 424 kts 162°
2026-05-06 18:42 50.32724 11.92017 32787 ft 424 kts 162°
2026-05-06 18:42 50.27308 11.95695 32790 ft 424 kts 162°
2026-05-06 18:43 50.21891 11.99341 32794 ft 424 kts 162°
2026-05-06 18:43 50.16480 12.02970 32772 ft 423 kts 163°
2026-05-06 18:44 50.11069 12.06589 32796 ft 423 kts 163°
2026-05-06 18:44 50.05667 12.10206 32800 ft 423 kts 163°
2026-05-06 18:45 50.00299 12.13789 32795 ft 422 kts 163°
2026-05-06 18:45 49.94907 12.17371 32808 ft 421 kts 163°
2026-05-06 18:46 49.89527 12.20945 32722 ft 420 kts 163°
2026-05-06 18:46 49.86840 12.22720 32048 ft 421 kts 163°
2026-05-06 18:46 49.84137 12.24496 31184 ft 423 kts 163°
2026-05-06 18:46 49.82305 12.25696 30622 ft 424 kts 162°
2026-05-06 18:47 49.79584 12.27480 29803 ft 425 kts 162°
2026-05-06 18:47 49.76855 12.29274 28827 ft 426 kts 162°
2026-05-06 18:47 49.74124 12.31080 27918 ft 427 kts 161°
2026-05-06 18:47 49.71520 12.33294 27509 ft 424 kts 152°
2026-05-06 18:48 49.69176 12.35964 27239 ft 413 kts 148°
2026-05-06 18:48 49.66911 12.38628 26976 ft 406 kts 148°
2026-05-06 18:48 49.64669 12.41249 26696 ft 403 kts 148°
2026-05-06 18:48 49.62435 12.43848 26412 ft 401 kts 148°
2026-05-06 18:49 49.60217 12.46421 25901 ft 397 kts 148°
2026-05-06 18:49 49.58046 12.48928 25322 ft 394 kts 148°
2026-05-06 18:49 49.55862 12.51456 24745 ft 392 kts 148°
2026-05-06 18:49 49.53693 12.53971 24183 ft 390 kts 148°
2026-05-06 18:50 49.51532 12.56479 23642 ft 388 kts 148°
2026-05-06 18:50 49.49312 12.58885 23051 ft 382 kts 155°
2026-05-06 18:50 49.46908 12.60303 22460 ft 371 kts 172°
2026-05-06 18:50 49.44373 12.60589 21824 ft 362 kts 188°
2026-05-06 18:51 49.41934 12.59851 21260 ft 356 kts 197°
2026-05-06 18:51 49.39545 12.58901 20689 ft 353 kts 197°
2026-05-06 18:51 49.37176 12.57945 20129 ft 351 kts 197°
2026-05-06 18:51 49.34820 12.56993 19571 ft 349 kts 197°
2026-05-06 18:52 49.32481 12.56055 19021 ft 346 kts 197°
2026-05-06 18:52 49.30155 12.55124 18465 ft 344 kts 197°
2026-05-06 18:52 49.27844 12.54198 17921 ft 342 kts 196°
2026-05-06 18:52 49.25556 12.53280 17377 ft 338 kts 196°
2026-05-06 18:53 49.23290 12.52376 16804 ft 335 kts 196°
2026-05-06 18:53 49.21042 12.51480 16220 ft 333 kts 196°
2026-05-06 18:53 49.18800 12.50591 15650 ft 332 kts 196°
2026-05-06 18:53 49.16574 12.49712 15102 ft 330 kts 195°
2026-05-06 18:54 49.14359 12.48839 14547 ft 328 kts 195°
2026-05-06 18:54 49.12155 12.47973 14009 ft 326 kts 195°
2026-05-06 18:54 49.09962 12.47104 13453 ft 325 kts 195°
2026-05-06 18:54 49.07780 12.46241 12852 ft 323 kts 195°
2026-05-06 18:55 49.05613 12.45383 12279 ft 321 kts 195°
2026-05-06 18:55 49.03460 12.44535 11738 ft 318 kts 195°
2026-05-06 18:55 49.01324 12.43692 11242 ft 315 kts 195°
2026-05-06 18:55 48.99240 12.42869 10995 ft 304 kts 195°
2026-05-06 18:56 48.97238 12.42081 10863 ft 290 kts 195°
2026-05-06 18:56 48.95321 12.41331 10645 ft 281 kts 195°
2026-05-06 18:56 48.93441 12.40597 10304 ft 278 kts 195°
2026-05-06 18:56 48.91573 12.39885 9925 ft 276 kts 195°
2026-05-06 18:57 48.89726 12.39185 9788 ft 274 kts 194°
2026-05-06 18:57 48.87869 12.38482 9793 ft 276 kts 194°
2026-05-06 18:57 48.86002 12.37775 9794 ft 277 kts 194°
2026-05-06 18:57 48.84137 12.37071 9807 ft 275 kts 194°
2026-05-06 18:58 48.82286 12.36375 9730 ft 273 kts 194°
2026-05-06 18:58 48.80449 12.35684 9327 ft 270 kts 194°
2026-05-06 18:58 48.78639 12.35001 9053 ft 265 kts 194°
2026-05-06 18:58 48.76865 12.34334 8782 ft 260 kts 194°
2026-05-06 18:59 48.75120 12.33678 8499 ft 257 kts 194°
2026-05-06 18:59 48.73390 12.33029 8218 ft 255 kts 194°
2026-05-06 18:59 48.71674 12.32384 7937 ft 254 kts 194°
2026-05-06 18:59 48.69969 12.31743 7659 ft 251 kts 194°
2026-05-06 19:00 48.68290 12.31111 7401 ft 246 kts 194°
2026-05-06 19:00 48.66637 12.30500 7126 ft 243 kts 194°
2026-05-06 19:00 48.64998 12.29886 6858 ft 242 kts 194°
2026-05-06 19:00 48.63366 12.29314 6574 ft 240 kts 196°
2026-05-06 19:01 48.61728 12.28872 6304 ft 238 kts 195°
2026-05-06 19:01 48.60131 12.28413 6033 ft 236 kts 197°
2026-05-06 19:01 48.58512 12.27927 5756 ft 232 kts 197°
2026-05-06 19:01 48.56940 12.27468 5477 ft 228 kts 197°
2026-05-06 19:02 48.55411 12.27048 5202 ft 225 kts 196°
2026-05-06 19:02 48.53877 12.26636 5040 ft 224 kts 197°
2026-05-06 19:02 48.52319 12.26218 5024 ft 225 kts 197°
2026-05-06 19:02 48.50793 12.25828 5033 ft 226 kts 196°
2026-05-06 19:03 48.49270 12.25327 4927 ft 221 kts 204°
2026-05-06 19:03 48.47828 12.24598 4727 ft 212 kts 206°
2026-05-06 19:03 48.46468 12.23880 4518 ft 203 kts 207°
2026-05-06 19:03 48.45242 12.23055 4282 ft 187 kts 225°
2026-05-06 19:04 48.44348 12.21732 4106 ft 174 kts 233°
2026-05-06 19:04 48.43559 12.20399 4038 ft 168 kts 234°
2026-05-06 19:04 48.42786 12.19078 4033 ft 169 kts 235°
2026-05-06 19:04 48.41999 12.17760 4037 ft 170 kts 235°
2026-05-06 19:05 48.41193 12.16444 4036 ft 172 kts 234°
2026-05-06 19:05 48.40369 12.15112 4039 ft 171 kts 235°
2026-05-06 19:05 48.39567 12.13832 4036 ft 170 kts 236°
2026-05-06 19:05 48.38986 12.12349 4030 ft 163 kts 257°
2026-05-06 19:06 48.38821 12.10669 4033 ft 160 kts 266°
2026-05-06 19:06 48.38702 12.09035 4049 ft 159 kts 266°
2026-05-06 19:06 48.38580 12.07378 4043 ft 159 kts 265°
2026-05-06 19:06 48.38462 12.05770 4033 ft 153 kts 265°
2026-05-06 19:07 48.38345 12.04191 4033 ft 152 kts 266°
2026-05-06 19:07 48.38228 12.02616 4028 ft 151 kts 265°
2026-05-06 19:07 48.38111 12.01044 3929 ft 150 kts 265°
2026-05-06 19:07 48.37996 11.99493 3770 ft 148 kts 265°
2026-05-06 19:08 48.37883 11.97986 3589 ft 141 kts 265°
2026-05-06 19:08 48.37776 11.96565 3435 ft 134 kts 265°
2026-05-06 19:08 48.37673 11.95183 3247 ft 132 kts 265°
2026-05-06 19:08 48.37571 11.93819 3069 ft 131 kts 265°
2026-05-06 19:09 48.37468 11.92450 2884 ft 132 kts 264°
2026-05-06 19:09 48.37365 11.91076 2706 ft 132 kts 265°
2026-05-06 19:09 48.37262 11.89716 2523 ft 132 kts 264°
2026-05-06 19:09 48.37159 11.88344 2327 ft 132 kts 263°
2026-05-06 19:10 48.37056 11.86979 2147 ft 130 kts 262°
2026-05-06 19:10 48.36957 11.85632 1928 ft 129 kts 261°
2026-05-06 19:10 48.36858 11.84301 1799 ft 125 kts 262°
2026-05-06 19:10 48.36759 11.82944 1615 ft 130 kts 261°
2026-05-06 19:11 48.36650 11.81628 1504 ft 124 kts 262°
2026-05-06 19:11 48.36563 11.80502 1477 ft 85 kts 264°
2026-05-06 19:11 48.36515 11.79928 1482 ft 34 kts 255°
2026-05-06 19:11 48.36419 11.79640 1478 ft 27 kts 233°
2026-05-06 19:12 48.36316 11.79432 1476 ft 20 kts 234°
2026-05-06 19:12 48.36225 11.79302 1480 ft 17 kts 189°
2026-05-06 19:12 48.36101 11.79315 1482 ft 19 kts 172°
2026-05-06 19:12 48.35982 11.79339 1479 ft 16 kts 172°
2026-05-06 19:13 48.35872 11.79382 1477 ft 17 kts 171°
2026-05-06 19:13 48.35745 11.79406 1485 ft 19 kts 175°
2026-05-06 19:13 48.35606 11.79430 1480 ft 21 kts 174°
2026-05-06 19:13 48.35508 11.79409 1479 ft 11 kts 243°
2026-05-06 19:14 48.35498 11.79306 1485 ft 5 kts 263°
2026-05-06 19:14 48.35497 11.79295 1485 ft 0 kts 262°
2026-05-06 19:19 48.35497 11.79296 1485 ft 0 kts 262°
2026-05-06 19:19 48.35498 11.79296 1485 ft 0 kts 262°
2026-05-06 19:26 48.35498 11.79297 1485 ft 0 kts 262°
2026-05-06 19:34 48.35498 11.79298 1485 ft 0 kts 262°
2026-05-06 19:42 48.35498 11.79299 1485 ft 0 kts 262°
2026-05-06 19:51 48.35498 11.79300 1485 ft 0 kts 262°
2026-05-06 19:59 48.35498 11.79301 1485 ft 0 kts 262°
2026-05-06 20:07 48.35498 11.79302 1485 ft 0 kts 262°